Weather History for Worland, WY

Change the Weather History Date:

Friday, February 8, 2013

  Actual Average Record
Temperature  
Mean Temperature 18 °F 21 °F  
Max Temperature 31 °F 35 °F 57 °F (2006)
Min Temperature 5 °F 8 °F -20 °F (2001)
Degree Days  
Heating Degree Days 47 44  
Month to date heating degree days 360 360  
Since 1 July heating degree days 4686 5208  
Cooling Degree Days 0 0  
Month to date cooling degree days 0 0  
Year to date cooling degree days 0 0  
Moisture  
Dew Point 14 °F    
Average Humidity 82    
Maximum Humidity 100    
Minimum Humidity 63    
Precipitation  
Precipitation 0.00 in 0.01 in 0.30 in (1962)
Month to date precipitation 0.00 0.05  
Year to date precipitation 0.13 0.28  
Sea Level Pressure  
Sea Level Pressure 30.02 in    
Wind  
Wind Speed 2 mph (South)    
Max Wind Speed 9 mph    
Max Gust Speed 20 mph    
Visibility 10 miles    
Events      
T = Trace of Precipitation, MM = Missing Value Source: NWS Daily Summary

Daily Weather History Graph

Daily Weather History Graph

Search for Another Location

Airport:

Trip Planner

Search our weather history database for the weather conditions in past years. The results will help you decide how hot, cold, wet, or windy it might be!

Date:

Astronomy

Feb. 08, 2013 Rise Set
Actual Time 7:20 AM MST 5:32 PM MST
Civil Twilight 6:50 AM MST 6:02 PM MST
Nautical Twilight 6:16 AM MST 6:36 PM MST
Astronomical Twilight 5:42 AM MST 7:10 PM MST
Moon 5:52 AM MST (2/8) 4:08 PM MST (2/8)
Length of Visible Light 11h 12m
Length of Day
10h 12m
Waning Crescent, 3% of the Moon is Illuminated
Feb 8
Waning Crescent
Feb 10
New
Feb 17
First Quarter
Feb 25
Full
Mar 4
Last Quarter

Hourly Weather History & Observations

Time (MST) Temp. Windchill Dew Point Humidity Pressure Visibility Wind Dir Wind Speed Gust Speed Precip Events Conditions
12:53 AM 10.9 °F - 8.1 °F 88% 30.06 in 10.0 mi Calm Calm - N/A   Clear
1:53 AM 10.9 °F 4.7 °F 8.1 °F 88% 30.05 in 9.0 mi SE 3.5 mph - N/A   Clear
2:53 AM 12.0 °F 4.1 °F 9.0 °F 88% 30.05 in 10.0 mi SSW 4.6 mph - N/A   Clear
3:53 AM 12.9 °F 6.9 °F 10.0 °F 88% 30.04 in 10.0 mi South 3.5 mph - N/A   Clear
4:53 AM 10.0 °F 3.6 °F 7.0 °F 87% 30.04 in 10.0 mi South 3.5 mph - N/A   Clear
5:53 AM 8.1 °F - 5.0 °F 87% 30.07 in 10.0 mi Calm Calm - N/A   Clear
6:53 AM 7.0 °F - 3.9 °F 87% 30.09 in 10.0 mi Calm Calm - N/A   Clear
7:53 AM 7.0 °F 0.1 °F 5.0 °F 92% 30.10 in 10.0 mi SW 3.5 mph - N/A   Clear
8:53 AM 12.9 °F - 12.0 °F 96% 30.10 in 10.0 mi Calm Calm - N/A   Clear
9:53 AM 15.1 °F - 12.9 °F 91% 30.10 in 10.0 mi Calm Calm - N/A   Clear
10:53 AM 19.0 °F 12.3 °F 12.9 °F 77% 30.10 in 10.0 mi NNE 4.6 mph - N/A   Clear
11:53 AM 23.0 °F - 16.0 °F 74% 30.04 in 10.0 mi Calm Calm - N/A   Clear
12:53 PM 24.1 °F - 17.1 °F 75% 30.00 in 10.0 mi Calm Calm - N/A   Clear
1:53 PM 28.9 °F - 17.1 °F 61% 29.96 in 10.0 mi Calm Calm - N/A   Clear
2:53 PM 28.9 °F 25.2 °F 17.1 °F 61% 29.95 in 10.0 mi NE 3.5 mph - N/A   Clear
3:53 PM 26.1 °F 18.4 °F 19.0 °F 75% 29.96 in 10.0 mi NE 6.9 mph - N/A   Mostly Cloudy
5:53 PM 25.0 °F - 19.9 °F 81% 29.98 in 10.0 mi Calm Calm - N/A   Overcast
6:53 PM 27.0 °F 19.5 °F 21.0 °F 78% 29.99 in 10.0 mi South 6.9 mph - N/A   Overcast
7:53 PM 28.9 °F 22.8 °F 19.9 °F 69% 30.00 in 10.0 mi SSW 5.8 mph - N/A   Overcast
8:53 PM 27.0 °F - 21.9 °F 81% 29.98 in 10.0 mi Calm Calm - N/A   Overcast
9:53 PM 28.9 °F 22.8 °F 21.0 °F 72% 29.98 in 10.0 mi South 5.8 mph - N/A   Overcast
10:53 PM 28.0 °F 24.2 °F 21.9 °F 78% 29.94 in 10.0 mi SW 3.5 mph - N/A   Overcast
11:53 PM 25.0 °F - 21.0 °F 85% 29.93 in 10.0 mi Calm Calm - N/A   Overcast